GFSFLT2_250_spd_132.txt.gz
Wind_Speed
44 47 39 38 34 33 34 33 34 35 35 38 42 43 39 35 33 33 33 32 33 33 33 32 33 32 35 36 37 36 37 33
41 45 41 37 31 32 31 31 33 35 36 38 39 44 39 36 33 32 33 32 32 33 33 32 32 33 35 38 38 38 36 39
44 45 44 38 35 31 30 29 32 34 34 38 38 40 37 35 35 35 34 33 34 32 33 33 32 32 34 38 36 37 37 41
48 47 50 46 41 37 33 32 31 33 34 32 36 38 35 35 33 34 35 35 35 32 33 34 33 33 35 37 37 38 39 39
55 54 54 54 47 42 40 38 34 33 34 33 35 38 38 36 35 35 35 36 36 35 34 34 34 35 36 36 37 38 38 36
58 56 56 56 50 47 45 42 39 36 34 36 38 39 39 39 38 36 37 37 38 37 38 33 34 35 36 34 36 38 39 36
62 59 56 60 58 52 50 48 44 40 38 35 38 42 43 42 41 39 39 39 39 39 38 36 36 36 34 34 35 38 40 37
66 62 59 61 63 57 55 52 48 44 43 39 36 38 40 46 46 43 41 41 40 39 39 35 35 35 35 35 36 37 39 38
71 68 63 61 64 62 60 57 51 48 45 46 42 37 36 34 37 32 31 31 34 36 35 31 33 35 37 36 35 36 35 39
74 72 66 65 67 66 62 58 53 51 49 48 47 44 40 38 37 34 32 33 34 34 35 37 37 39 37 35 34 35 36 39
77 75 72 67 72 72 70 62 56 52 51 51 48 45 43 41 40 37 35 33 31 30 33 37 38 38 35 33 35 34 38 38
81 79 76 71 71 75 74 67 58 53 55 52 47 44 43 43 42 40 38 39 38 34 37 41 41 35 32 35 36 37 39 38
89 87 84 81 73 72 73 74 70 60 58 54 51 48 45 45 41 37 35 39 37 37 39 38 36 33 34 37 38 38 37 39
99 94 90 86 79 72 77 79 76 66 59 54 54 54 51 46 44 42 43 42 40 40 39 33 30 26 31 35 35 38 39 42
110 100 95 90 87 81 81 80 77 70 66 64 62 58 56 52 47 45 42 42 42 41 38 35 40 34 33 32 34 40 45 47
109 111 104 100 93 86 81 83 79 76 75 71 65 63 61 58 53 46 47 46 41 37 36 33 37 37 41 41 39 41 39 40
105 101 107 105 93 89 82 84 83 80 75 73 71 67 64 61 57 51 49 43 37 43 44 48 40 44 45 45 41 36 35 35
119 117 114 102 89 92 84 81 85 83 78 76 76 70 66 64 58 50 44 30 36 45 39 41 40 42 43 44 39 39 42 38
117 102 111 109 93 89 85 79 80 82 81 79 78 75 72 67 58 51 40 38 59 59 57 50 36 37 44 52 56 52 50 45
88 92 102 112 105 98 89 82 76 81 75 78 74 73 71 68 60 57 55 56 54 60 58 60 48 43 45 55 57 54 55 52

GFSFLT2_250_spd_135.txt.gz
Wind_Speed
47 46 48 47 42 39 36 36 33 33 31 35 34 35 33 34 40 45 44 37 32 32 30 30 29 29 31 31 33 33 34 32
48 47 47 46 41 36 33 33 33 34 33 31 33 33 35 34 38 41 39 35 33 33 32 30 33 31 33 32 34 35 33 32
51 50 50 47 45 40 36 34 33 33 31 30 30 32 34 36 37 40 36 35 34 35 34 33 32 28 31 31 34 34 34 33
54 53 54 52 48 47 40 37 39 37 33 33 31 31 32 36 37 38 37 37 35 36 37 35 33 32 30 30 32 33 34 32
60 57 56 55 54 54 49 44 44 43 40 36 34 31 31 30 36 36 37 35 35 36 36 36 35 33 28 31 32 31 32 33
67 65 61 58 56 58 56 49 46 44 44 38 35 33 31 31 34 40 38 37 38 39 38 37 38 35 30 29 32 30 32 33
67 65 61 60 59 59 59 54 49 46 44 42 39 36 34 32 36 38 38 40 41 41 41 42 40 36 31 31 30 30 32 34
71 70 68 66 64 62 62 56 52 50 48 46 41 38 36 37 35 39 41 42 43 44 46 43 34 31 31 31 30 33 32 31
74 76 75 71 67 66 64 60 57 55 52 49 47 42 38 37 38 36 39 42 39 32 30 32 32 32 34 35 34 34 31 29
77 74 77 76 74 71 70 66 62 59 56 53 51 47 44 42 41 39 37 37 36 32 33 28 28 31 32 33 35 31 31 29
83 79 76 80 77 74 73 71 66 62 57 54 52 49 45 45 43 41 39 39 38 36 35 33 34 36 36 34 31 26 31 34
91 86 82 78 79 78 73 73 72 68 63 56 55 53 49 46 46 44 37 38 38 37 38 36 37 37 37 28 25 25 30 33
101 96 86 84 83 81 78 71 71 75 70 67 59 56 51 49 48 45 38 38 38 36 36 37 38 36 38 26 23 25 28 31
104 106 98 90 90 89 86 83 72 78 73 69 62 57 56 54 51 48 43 40 37 39 41 41 37 38 35 37 32 28 27 28
114 111 109 102 92 96 94 91 89 78 70 67 70 63 61 60 54 50 47 45 46 44 42 41 39 30 27 27 33 33 30 31
107 112 114 110 103 99 98 94 89 81 77 76 74 68 64 61 58 54 52 50 48 50 49 44 41 33 32 30 31 37 36 34
110 109 114 113 113 105 98 96 90 88 80 82 74 70 67 66 62 61 56 52 54 54 50 46 40 36 37 39 39 41 40 35
88 91 102 104 115 109 99 97 93 93 85 82 74 73 73 69 66 63 61 59 55 55 52 46 34 38 36 38 38 38 39 40
73 79 87 91 99 97 96 101 96 93 89 82 79 73 78 75 72 67 65 63 62 60 57 45 45 51 42 40 43 43 37 39
60 70 71 76 81 95 93 99 94 93 92 88 82 74 77 81 77 72 68 67 64 66 58 59 51 44 48 52 44 41 41 45

GFSFLT2_250_spd_138.txt.gz
Wind_Speed
40 42 39 39 39 39 38 36 35 35 28 28 31 33 33 33 32 34 33 33 33 35 33 28 31 31 31 28 25 22 25 21
45 45 43 43 42 40 39 38 35 35 30 26 29 31 31 30 30 33 34 35 32 32 31 28 32 32 34 28 26 24 24 24
49 47 48 49 48 45 42 40 39 36 35 29 30 32 32 32 31 31 33 34 33 33 31 31 32 33 33 32 31 27 28 25
49 49 51 52 52 51 47 46 42 40 37 36 33 33 33 35 33 31 32 33 33 32 33 32 32 33 32 32 34 27 32 28
54 52 52 54 54 53 52 51 50 46 43 43 41 37 36 37 35 31 29 27 32 34 34 32 32 35 34 35 35 33 33 28
59 58 58 56 54 52 53 53 53 51 46 46 45 40 36 37 34 33 28 25 32 36 36 35 36 36 37 39 38 37 31 28
66 61 63 59 59 54 51 50 52 52 49 46 46 44 40 39 37 34 30 29 29 32 36 37 36 38 41 42 31 31 29 32
73 68 65 66 64 61 56 54 56 56 55 51 47 45 45 43 39 36 35 31 30 33 35 35 37 40 35 30 31 29 26 30
79 78 70 69 70 69 67 60 60 60 58 58 51 48 47 47 43 40 36 35 33 32 32 32 34 33 31 30 27 27 30 30
82 82 80 74 75 75 75 69 63 63 61 60 57 53 49 50 49 44 40 38 38 36 33 32 32 32 30 30 31 31 27 23
90 88 87 83 81 81 76 74 69 65 65 63 63 59 55 53 50 48 45 44 41 37 36 35 35 34 33 37 35 29 18 17
91 96 97 94 89 86 83 80 73 70 71 70 65 62 60 55 53 49 48 49 44 40 37 35 36 35 33 34 33 31 22 21
100 100 103 106 99 93 91 85 81 70 69 71 67 66 65 61 56 54 50 49 47 43 39 37 36 35 35 35 35 35 24 25
108 110 107 109 110 100 97 93 83 80 73 72 70 67 65 64 58 56 51 48 50 47 41 38 38 38 37 35 36 26 22 22
110 111 111 111 107 105 99 96 87 82 78 76 70 65 67 65 62 57 59 49 49 50 44 43 41 42 42 37 37 31 27 28
106 106 109 105 107 109 102 98 88 84 82 78 74 72 75 72 67 62 60 56 50 49 53 48 46 48 45 44 41 35 32 30
102 104 105 106 104 108 103 102 94 79 83 78 80 81 76 77 73 67 61 60 53 53 54 51 50 49 52 52 45 38 38 38
94 98 101 103 104 105 107 102 97 89 75 81 81 82 83 81 77 70 66 62 58 59 54 52 52 55 55 53 44 42 34 30
75 71 73 80 84 92 97 94 96 86 57 76 84 83 82 84 78 75 74 68 64 63 62 58 59 57 60 57 49 47 36 37
61 60 59 67 74 77 81 81 79 57 39 88 93 80 77 80 76 64 58 57 64 67 63 63 63 61 59 62 55 52 51 43

GFSFLT2_250_spd_141.txt.gz
Wind_Speed
38 38 39 38 37 34 33 33 30 29 30 27 24 25 26 26 26 27 27 27 27 27 28 27 25 24 23 24 25 26 20 22
42 41 42 42 40 37 36 37 37 33 31 31 29 25 25 26 27 27 28 29 28 28 28 28 25 24 24 25 27 28 24 21
46 40 40 40 41 41 40 39 39 41 38 35 33 31 28 28 29 29 31 31 30 29 29 29 25 26 27 25 26 29 29 26
44 44 41 43 45 44 43 41 42 43 42 38 38 37 36 33 31 32 34 32 31 30 27 28 28 26 27 27 26 30 30 29
48 46 46 44 46 48 48 47 46 44 43 42 39 37 39 38 37 35 34 33 31 29 26 27 28 28 29 29 29 34 35 37
53 55 56 54 50 51 51 50 49 48 47 44 41 36 37 39 39 38 35 34 32 30 27 26 29 31 31 32 32 35 37 28
64 62 61 61 55 48 56 57 55 54 51 48 45 43 39 38 40 41 40 36 34 32 29 28 30 32 30 32 31 34 29 28
73 69 64 63 59 52 53 61 58 55 56 52 50 46 45 43 42 44 42 40 36 32 32 28 28 30 30 30 27 27 29 27
75 77 71 65 67 65 62 63 66 62 60 58 57 52 49 45 47 47 46 43 42 36 32 33 26 24 24 25 25 25 27 30
80 80 79 74 70 71 70 65 60 66 62 64 65 60 56 48 51 48 50 46 43 44 37 33 32 30 28 28 28 28 30 30
80 83 86 84 79 76 78 77 70 68 71 66 67 64 60 56 49 52 51 50 49 48 45 40 34 34 32 32 32 33 32 28
86 86 89 96 94 88 85 87 83 76 72 73 64 67 67 59 54 54 55 56 53 52 47 45 40 37 34 34 33 33 32 28
98 98 98 99 104 104 97 91 93 89 81 73 72 64 72 67 62 57 57 57 56 52 50 49 45 42 38 38 35 35 34 28
102 106 109 111 110 109 110 103 99 96 91 74 72 72 64 71 68 63 58 59 57 53 51 51 47 44 42 39 39 37 32 33
101 101 105 108 112 114 111 108 104 100 97 90 61 66 64 65 73 70 62 57 54 49 50 54 54 46 45 43 42 40 34 33
100 98 98 99 99 102 105 102 100 95 94 88 71 60 65 61 72 73 68 63 55 56 51 52 51 50 47 48 46 44 41 40
91 91 94 94 94 94 96 99 100 98 93 85 76 57 59 59 76 73 68 68 62 56 55 51 56 55 54 54 48 49 47 43
82 83 85 88 91 95 98 102 99 97 94 86 75 56 54 62 67 67 63 66 64 63 63 63 54 58 58 56 54 50 53 48
73 72 75 78 82 87 91 91 94 90 90 86 74 48 47 45 47 72 58 65 65 68 69 68 67 64 59 61 55 54 53 51
56 57 59 63 67 71 73 72 78 80 79 84 75 52 47 41 45 103 104 65 76 72 66 71 69 68 65 62 62 59 59 54

GFSFLT2_250_spd_147.txt.gz
Wind_Speed
43 39 38 35 33 32 31 31 33 33 31 27 25 24 25 26 28 28 28 27 26 27 26 26 23 22 27 24 20 18 17 16
38 36 34 35 35 34 35 37 36 32 26 24 25 26 25 27 28 30 30 30 30 28 27 27 27 23 27 27 23 20 19 21
43 43 40 41 41 41 40 38 35 30 27 26 26 26 28 29 29 31 33 34 34 32 30 27 29 27 26 28 27 24 21 22
49 46 45 44 45 44 41 38 34 31 29 28 29 29 30 27 28 32 34 34 35 34 32 29 28 29 29 27 27 27 25 23
56 54 49 46 45 42 38 38 38 37 36 32 34 33 30 31 31 33 35 36 34 36 32 31 31 28 31 29 25 27 29 25
51 56 57 51 46 45 44 42 42 42 42 40 40 39 38 38 34 37 39 37 37 37 36 33 31 30 30 32 29 27 31 31
50 51 55 57 56 54 52 49 48 48 48 46 45 43 42 47 45 38 39 39 41 41 39 36 35 32 31 33 33 32 30 33
54 55 55 60 63 63 63 61 58 56 53 53 50 46 41 46 51 43 37 40 43 44 43 41 39 35 34 33 34 36 34 33
58 59 60 60 60 63 65 65 61 59 58 57 54 49 40 47 50 48 44 41 46 50 45 45 40 38 37 36 35 37 37 35
60 61 62 61 61 60 59 60 60 62 63 59 58 54 49 53 47 50 53 50 46 48 50 48 42 38 36 38 39 37 37 39
66 68 70 71 72 71 68 69 70 68 67 69 67 62 59 55 50 49 53 56 46 46 42 44 40 38 39 38 39 41 39 40
72 74 75 76 78 81 81 79 77 75 75 76 77 71 67 62 59 52 58 53 50 51 45 44 47 46 44 40 38 39 42 42
78 80 81 82 85 87 86 85 87 88 87 86 87 86 80 70 62 58 62 54 56 56 53 48 47 50 47 43 41 39 39 43
85 88 88 90 92 95 95 97 98 101 107 101 94 94 90 83 78 72 65 59 49 66 61 56 57 56 50 45 43 42 41 41
96 98 100 101 103 103 101 107 107 103 103 106 98 91 92 87 82 79 71 67 50 73 65 64 66 64 60 49 45 45 44 40
104 107 105 102 106 102 101 102 102 97 94 94 92 83 84 84 76 74 73 69 73 64 50 61 67 71 62 63 57 53 44 43
111 112 112 112 106 93 90 93 90 91 90 89 89 87 81 83 79 72 67 71 68 67 56 78 77 78 63 68 77 67 50 47
111 114 112 101 96 90 84 85 85 86 85 85 88 90 87 84 82 73 65 69 69 76 73 72 72 83 65 66 72 65 59 56
106 100 94 94 90 81 74 75 75 75 75 74 75 78 80 84 80 77 72 70 72 83 92 82 75 68 68 60 68 67 68 63
90 87 87 85 80 70 65 65 63 68 69 68 69 73 77 79 77 77 78 78 79 88 90 90 73 71 61 56 63 71 70 66

GFSFLT2_250_spd_150.txt.gz
Wind_Speed
45 41 39 39 39 38 36 34 33 33 33 33 32 31 29 26 23 23 22 21 20 20 23 26 28 28 25 22 20 22 23 26
45 45 43 40 36 35 35 34 33 33 34 35 33 28 28 27 26 23 22 20 20 20 22 25 28 31 29 24 22 23 23 26
46 46 47 44 41 38 37 37 35 37 39 37 34 31 26 26 25 25 24 21 20 20 21 22 26 29 29 27 25 22 24 24
50 46 43 46 47 43 40 39 40 41 41 35 33 33 28 26 26 26 25 22 23 23 21 22 23 27 29 27 27 23 23 22
52 50 47 41 42 46 46 44 43 41 37 37 37 36 30 29 29 29 26 27 29 27 23 23 26 28 28 29 29 27 22 23
51 51 51 48 46 43 44 48 46 42 40 38 38 40 40 38 35 34 36 32 33 31 27 26 27 29 28 30 29 29 27 23
53 52 54 54 52 50 49 47 47 48 47 45 43 41 44 45 41 40 40 38 33 27 30 29 29 31 31 32 31 30 30 30
50 51 51 53 54 56 55 54 53 54 55 55 54 51 49 48 49 42 41 40 36 29 29 32 32 33 34 37 31 30 31 32
48 50 50 51 52 52 53 53 55 56 55 55 55 53 55 57 50 47 42 39 47 44 38 38 36 26 35 34 31 26 28 31
54 56 56 58 58 59 58 57 57 58 58 58 56 56 57 55 56 52 38 39 53 52 50 46 46 30 31 33 29 28 27 29
60 61 62 64 65 64 63 64 65 67 67 67 67 64 63 60 57 57 43 39 68 61 59 50 44 38 35 35 33 35 31 30
66 68 70 72 73 74 73 74 75 73 73 73 73 72 74 70 64 61 63 57 45 59 61 49 45 44 46 38 37 39 36 35
69 73 75 76 77 78 80 81 82 82 79 79 80 79 78 78 76 70 68 68 57 66 64 46 55 52 51 44 43 39 43 36
74 76 78 80 82 84 85 87 89 90 90 91 94 94 93 88 86 84 77 76 69 65 67 66 60 56 49 44 51 53 46 44
82 84 86 89 91 95 96 98 99 100 101 103 107 108 109 105 94 93 92 87 83 75 63 80 63 58 52 53 50 49 53 55
92 94 97 99 101 103 106 106 107 110 110 114 118 117 112 106 98 86 92 90 82 85 82 78 71 66 61 67 56 60 66 62
98 100 103 105 109 111 112 114 112 107 105 107 104 97 95 96 92 84 76 84 84 80 88 89 78 63 49 55 64 66 73 69
91 93 96 99 103 102 102 99 95 95 92 98 92 87 85 89 88 80 73 74 85 78 86 93 90 68 65 70 70 68 63 65
90 92 92 96 92 91 91 91 92 89 88 89 85 81 79 80 78 78 74 74 81 80 83 95 95 82 67 68 71 84 76 70
90 91 94 92 89 88 86 87 86 81 77 76 73 73 70 69 70 70 73 75 78 83 82 95 92 90 84 69 70 68 66 70